Wichita, KS

5:05 AM CDT on October 17, 2017 (GMT -0500)
Wichita Eisenhower National Airport

Weather History for KICT - July, 2013

Change the Weather History Date:

Tuesday, July 2, 2013

  Actual Average Record
Temperature  
Mean Temperature 74 °F 80 °F  
Max Temperature 87 °F 91 °F 108 °F (1990)
Min Temperature 60 °F 69 °F 54 °F (1959)
Degree Days  
Heating Degree Days 0 0  
Month to date heating degree days 0 0  
Since 1 June heating degree days 3 6  
Since 1 July heating degree days 0 0  
Cooling Degree Days 9 15  
Month to date cooling degree days 16 30  
Year to date cooling degree days 556 495  
Since 1 June cooling degree days 418 359  
Growing Degree Days 24 (Base 50)    
Moisture  
Dew Point 50 °F    
Average Humidity 46    
Maximum Humidity 72    
Minimum Humidity 20    
Precipitation  
Precipitation 0.00 in 0.13 in 5.72 in (2016)
Month to date precipitation 0.00 0.25  
Year to date precipitation 15.85 17.31  
Snow  
Snow 0.00 in 0.00 in 0.00 in (2007)
Month to date snowfall 0.0 0.0  
Since 1 June snowfall 0.0 0.0  
Since 1 July snowfall 0.0 0.0  
Snow Depth 0.00 in    
Sea Level Pressure  
Sea Level Pressure 30.08 in    
Wind  
Wind Speed 8 mph (NNE)    
Max Wind Speed 18 mph    
Max Gust Speed 25 mph    
Visibility 10 miles    
Events      
T = Trace of Precipitation, MM = Missing Value Source: NWS Daily Summary

Daily Weather History Graph

Daily Weather History Graph

Search for Another Location

Airport or City:

Trip Planner

Search our weather history database for the weather conditions in past years. The results will help you decide how hot, cold, wet, or windy it might be!

Date:

Astronomy

Jul. 02, 2013 Rise Set
Actual Time 6:12 AM CDT 8:55 PM CDT
Civil Twilight 5:41 AM CDT 9:26 PM CDT
Nautical Twilight 5:02 AM CDT 10:04 PM CDT
Astronomical Twilight 4:18 AM CDT 10:48 PM CDT
Moon 2:12 AM CDT (7/2) 4:12 PM CDT (7/2)
Length of Visible Light 15h 44m
Length of Day
14h 42m
Waning Crescent, 26% of the Moon is Illuminated
Jul 2
Waning Crescent
Jul 8
New
Jul 15
First Quarter
Jul 22
Full
Jul 29
Last Quarter

Hourly Weather History & Observations

Time (CDT) Temp. Heat Index Dew Point Humidity Pressure Visibility Wind Dir Wind Speed Gust Speed Precip Events Conditions
12:53 AM 64.9 °F - 52.0 °F 63% 30.10 in 10.0 mi NW 5.8 mph - N/A   Clear
1:53 AM 62.1 °F - 53.1 °F 72% 30.10 in 10.0 mi NW 6.9 mph - N/A   Clear
2:53 AM 63.0 °F - 52.0 °F 67% 30.09 in 10.0 mi NW 8.1 mph - N/A   Clear
3:53 AM 62.1 °F - 52.0 °F 70% 30.09 in 10.0 mi NNW 8.1 mph - N/A   Clear
4:53 AM 60.1 °F - 51.1 °F 72% 30.10 in 10.0 mi NW 5.8 mph - N/A   Partly Cloudy
5:53 AM 60.1 °F - 52.0 °F 75% 30.11 in 10.0 mi NNW 6.9 mph - N/A   Scattered Clouds
6:53 AM 62.1 °F - 52.0 °F 70% 30.12 in 10.0 mi NNW 8.1 mph - N/A   Scattered Clouds
7:53 AM 66.0 °F - 52.0 °F 60% 30.12 in 10.0 mi North 9.2 mph - N/A   Clear
9:53 AM 73.9 °F - 55.0 °F 52% 30.13 in 10.0 mi North 9.2 mph - N/A   Clear
10:53 AM 77.0 °F - 55.9 °F 48% 30.13 in 10.0 mi North 6.9 mph - N/A   Partly Cloudy
11:53 AM 81.0 °F 80.5 °F 54.0 °F 39% 30.12 in 10.0 mi North 9.2 mph 18.4 mph N/A   Partly Cloudy
12:53 PM 84.0 °F 82.5 °F 53.1 °F 34% 30.10 in 10.0 mi North 12.7 mph 18.4 mph N/A   Scattered Clouds
1:53 PM 84.9 °F - 51.1 °F 31% 30.09 in 10.0 mi NNW 11.5 mph - N/A   Scattered Clouds
2:53 PM 86.0 °F - 46.9 °F 26% 30.07 in 10.0 mi ENE 13.8 mph 23.0 mph N/A   Scattered Clouds
3:53 PM 86.0 °F - 44.1 °F 23% 30.06 in 10.0 mi NE 12.7 mph 20.7 mph N/A   Scattered Clouds
4:53 PM 87.1 °F - 41.0 °F 20% 30.05 in 10.0 mi NE 16.1 mph 23.0 mph N/A   Partly Cloudy
5:53 PM 86.0 °F - 44.1 °F 23% 30.03 in 10.0 mi NE 12.7 mph - N/A   Partly Cloudy
6:53 PM 84.0 °F - 46.0 °F 26% 30.03 in 10.0 mi NE 9.2 mph - N/A   Clear
7:53 PM 81.0 °F - 44.1 °F 27% 30.04 in 10.0 mi NE 8.1 mph - N/A   Clear
8:53 PM 77.0 °F - 53.1 °F 43% 30.04 in 10.0 mi ENE 8.1 mph - N/A   Clear
9:53 PM 73.9 °F - 48.0 °F 40% 30.05 in 10.0 mi East 5.8 mph - N/A   Clear
10:53 PM 71.1 °F - 50.0 °F 47% 30.06 in 10.0 mi ESE 4.6 mph - N/A   Clear
11:53 PM 66.0 °F - 51.1 °F 59% 30.07 in 10.0 mi Calm Calm - N/A   Partly Cloudy